Location: Schommer Observatory
(40.5200°N, 74.4500°W)
Time: 06:35:52
(UTC-04:00)

Envisat - Pass Details

Date: 14 October 2017
Orbit: 764 x 766 km, 98.2° (Epoch: 20 October)

Event Time Altitude Azimuth Distance (km) Brightness Sun altitude
Exits shadow 22:00:13 16° 296° (WNW) 1,934 5.6 -41.7°
Drops below altitude 10° 22:01:52 10° 313° (NW) 2,307 6.1 -42.0°
Sets 22:04:51 0° 331° (NNW) 3,239 6.9 -42.4°
